TimeEST,TemperatureF,Dew PointF,Humidity,Sea Level PressureIn,VisibilityMPH,Wind Direction,Wind SpeedMPH,Gust SpeedMPH,PrecipitationIn,Events,Conditions,WindDirDegrees,DateUTC
12:54 AM,28.9,21.0,72,30.31,10.0,SSW,4.6,-,N/A,,Overcast,200,2013-02-23 05:54:00
1:54 AM,28.9,21.0,72,30.29,10.0,SSE,5.8,-,N/A,,Overcast,160,2013-02-23 06:54:00
2:54 AM,28.9,21.9,75,30.28,10.0,SSE,4.6,-,N/A,,Overcast,160,2013-02-23 07:54:00
3:54 AM,28.9,21.9,75,30.25,10.0,Calm,Calm,-,N/A,,Overcast,0,2013-02-23 08:54:00
4:54 AM,28.9,21.9,75,30.25,10.0,SE,6.9,-,N/A,,Overcast,140,2013-02-23 09:54:00
5:54 AM,28.9,21.9,75,30.25,10.0,SE,5.8,-,N/A,,Overcast,140,2013-02-23 10:54:00
6:54 AM,28.9,21.9,75,30.23,10.0,SE,5.8,-,N/A,,Overcast,130,2013-02-23 11:54:00
7:54 AM,28.9,23.0,78,30.23,10.0,SE,6.9,-,N/A,,Overcast,130,2013-02-23 12:54:00
8:54 AM,30.0,24.1,79,30.22,10.0,SE,6.9,-,N/A,,Overcast,130,2013-02-23 13:54:00
9:54 AM,30.0,25.0,82,30.20,10.0,SE,8.1,-,N/A,,Overcast,130,2013-02-23 14:54:00
10:54 AM,30.9,26.1,82,30.18,10.0,SE,11.5,-,N/A,,Overcast,140,2013-02-23 15:54:00
11:09 AM,30.9,26.1,82,30.13,10.0,SE,11.5,-,N/A,,Overcast,130,2013-02-23 16:09:00
11:54 AM,32.0,26.1,79,30.15,10.0,SE,12.7,-,N/A,,Overcast,130,2013-02-23 16:54:00
12:54 PM,32.0,28.0,85,30.11,7.0,SE,9.2,-,N/A,,Overcast,130,2013-02-23 17:54:00
1:06 PM,32.0,28.0,85,30.08,10.0,SE,9.2,-,N/A,,Overcast,140,2013-02-23 18:06:00
1:18 PM,32.0,28.0,85,30.08,10.0,ESE,8.1,-,N/A,,Overcast,120,2013-02-23 18:18:00
1:54 PM,32.0,28.0,85,30.11,9.0,SE,11.5,-,N/A,,Overcast,130,2013-02-23 18:54:00
2:54 PM,33.8,26.6,75,30.06,10.0,SE,8.1,-,N/A,,Overcast,130,2013-02-23 19:54:00
3:54 PM,33.1,27.0,78,30.08,10.0,SE,10.4,-,N/A,,Overcast,130,2013-02-23 20:54:00
4:01 PM,33.1,28.0,82,30.03,10.0,SE,6.9,-,N/A,,Overcast,130,2013-02-23 21:01:00
4:45 PM,33.1,28.0,82,30.02,1.5,ESE,10.4,-,0.00,Snow,Light Snow,120,2013-02-23 21:45:00
4:54 PM,32.0,28.0,85,30.05,0.5,ESE,9.2,-,0.01,Snow,Light Snow,120,2013-02-23 21:54:00
5:07 PM,30.9,28.9,92,30.02,0.5,ESE,10.4,-,0.01,Fog-Snow,Snow,120,2013-02-23 22:07:00
5:14 PM,30.9,28.9,92,30.01,0.5,ESE,10.4,-,0.02,Snow,Light Snow,120,2013-02-23 22:14:00
5:23 PM,30.9,30.0,96,30.01,0.5,ESE,9.2,-,0.02,Snow,Light Snow,120,2013-02-23 22:23:00
5:54 PM,30.9,30.0,96,30.04,0.5,ESE,6.9,-,0.04,Snow,Light Snow,110,2013-02-23 22:54:00
6:54 PM,30.9,30.0,96,30.04,0.5,ESE,5.8,-,0.05,Snow,Light Snow,110,2013-02-23 23:54:00
7:54 PM,30.0,30.0,100,30.02,0.5,East,6.9,-,0.03,Fog-Snow,Light Snow,80,2013-02-24 00:54:00
8:26 PM,30.0,30.0,100,29.95,0.2,East,8.1,-,0.01,Fog-Snow,Light Snow,90,2013-02-24 01:26:00
8:54 PM,30.0,30.0,100,29.99,0.2,East,6.9,-,0.01,Fog,Light Freezing Fog,80,2013-02-24 01:54:00
9:52 PM,30.2,30.2,100,29.92,0.2,ENE,8.1,-,0.00,Fog-Rain,Light Freezing Rain,70,2013-02-24 02:52:00
9:54 PM,30.0,30.0,100,29.96,0.2,ENE,6.9,-,0.00,Fog-Rain,Light Freezing Rain,70,2013-02-24 02:54:00
10:17 PM,30.0,30.0,100,29.91,0.2,ENE,8.1,-,0.00,Fog,Light Freezing Fog,60,2013-02-24 03:17:00
10:37 PM,30.9,30.0,96,29.90,0.2,NE,9.2,-,0.00,Fog-Rain,Light Freezing Rain,50,2013-02-24 03:37:00
10:54 PM,30.9,30.0,96,29.93,0.2,NE,6.9,-,0.00,Fog-Rain,Light Freezing Rain,50,2013-02-24 03:54:00
11:11 PM,30.9,30.0,96,29.88,0.5,NE,8.1,-,0.00,Fog,Light Freezing Fog,40,2013-02-24 04:11:00
11:25 PM,30.9,30.0,96,29.87,0.8,NE,9.2,-,0.00,Rain,Light Freezing Rain,50,2013-02-24 04:25:00
11:32 PM,30.9,30.0,96,29.86,1.0,NE,9.2,-,0.00,Rain,Light Freezing Rain,50,2013-02-24 04:32:00
11:39 PM,30.9,30.0,96,29.86,0.5,NE,9.2,-,0.00,Fog-Rain,Light Freezing Rain,50,2013-02-24 04:39:00
11:54 PM,30.9,30.9,100,29.90,0.5,NE,8.1,-,0.01,Fog-Rain,Light Freezing Rain,50,2013-02-24 04:54:00